COSMOS 2429 [-]

Last updated on July 6, 2021, 3:40 p.m. UTC

1 32052U 07038A   21186.83807968  .00000032  00000-0  17547-4 0  9990
2 32052  82.9812  97.6936 0037168 241.0886 118.6540 13.74941898693274
UTC
Height (km)
Latitude
Longitude
Inclination
Orbital Period
UTC large
Height (km)
Speed (km/s)
/
Latitude / Longitude
Inclination (degrees)
Orbital Period (minutes)
Azimuth
Elevation
Range (km)
Doppler Factor
iOS Compass Heading
iOS Angle